Regional Weather Roundup
Issued by NWS

Home | Current Version | Previous Version | Graphics & Text | Print | Product List | Glossary Off
Versions: 1 2 3 4 5 6 7 8 9 10 11 12 13 14 15 16 17 18 19 20 21 22 23 24 25 26 27 28 29 30 31 32 33 34 35 36 37 38 39 40 41 42 43 44 45 46 47 48 49 50

000
ASUS43 KTOP 290208
RWRKS

WEATHER ROUNDUP FOR KANSAS
NATIONAL WEATHER SERVICE GOODLAND KS
900 PM CDT TUE JUL 28 2015

NOTE:  "FAIR" INDICATES FEW OR NO CLOUDS BELOW 12,000 FEET WITH NO
SIGNIFICANT WEATHER AND/OR OBSTRUCTIONS TO VISIBILITY.

KSZ001>006-013>018-027>032-041>047-290300-
NORTHWEST KANSAS

CITY           SKY/WX    TMP DP  RH WIND       PRES   REMARKS
GOODLAND       CLEAR     71  48  43 NE9       30.11R
HAYS           CLEAR     79  57  47 N14       29.98R
HILL CITY      CLEAR     73  58  59 N8        30.01R
RUSSELL        PTCLDY    80  63  55 N15       29.95R
$$

KSZ061>065-074>080-084>089-290300-
SOUTHWEST KANSAS

CITY           SKY/WX    TMP DP  RH WIND       PRES   REMARKS
DODGE CITY     CLEAR     79  63  57 N13       29.98R
ELKHART          N/A     77  59  54 NE5         N/A
GARDEN CITY    PTCLDY    77  59  53 N13       30.00R
GREAT BEND     CLEAR     84  70  61 N17       29.93R
LIBERAL        MOCLDY    81  61  50 N12       30.00R
PRATT          CLEAR     84  70  61 N13       29.93R
$$

KSZ066>073-081>083-090>101-290300-
SOUTHEAST KANSAS

CITY           SKY/WX    TMP DP  RH WIND       PRES   REMARKS
CHANUTE        CLEAR     83  73  72 S6        29.90S
COFFEYVILLE    CLEAR     84  72  67 S5        29.90S
HUTCHINSON     PTCLDY    93  70  46 S17       29.88R HX  99
MEDICINE LODGE   N/A     92  70  48 S9G18     29.86R HX  97
NEWTON         CLEAR     90  70  51 S13       29.92R HX  95
PARSONS        CLEAR     85  73  67 S6        29.92R
WICHITA INTL   PTCLDY    90  71  53 S16       29.88R HX  96
WICHITA JABRA  CLEAR     88  72  58 S13       29.89R
WICHITA MCCONL CLEAR     89  72  57 S15       29.89R HX  96
WINFIELD       CLEAR     87  72  60 S12       29.90R
$$

KSZ007>012-019>026-033>040-048>060-102>105-290300-
NORTHEAST KANSAS

CITY           SKY/WX    TMP DP  RH WIND       PRES   REMARKS
CONCORDIA      MOCLDY    78  70  76 N9        29.94R
EMPORIA        CLEAR     87  73  62 S10       29.88R
LAWRENCE       CLEAR     87  73  62 S8        29.86S
MANHATTAN      MOCLDY    91  75  59 W8        29.84R HX 101
MARYSVILLE     PTCLDY    79  72  78 N15G21    29.90R
OLATHE IND     CLEAR     84  73  69 S7        29.89S
OLATHE EXE     CLEAR     85  71  63 S9        29.88S
SALINA         PTCLDY    86  74  67 N21       29.89R
TOPEKA BILLARD CLEAR     89  74  60 S10       29.84F HX  98
TOPEKA FORBES  CLEAR     89  73  59 S9        29.86S HX  97
$$


USA.gov is the U.S. government's official web portal to all federal, state and local government web resources and services.